Temp
-8 -8 -8 -8 -9 -8 -8 -8 -7 -7 -7 -7 -7 -7 -7 -7 -6 -7 -6 -6 -6 -6 -6 -6 -6 -6 -6 -7 -7 -7 -6 -7 -7 -7 -7 -8 -8 -9 -9 -9 -9 -8 -9
-8 -8 -8 -9 -9 -9 -8 -8 -8 -8 -7 -7 -8 -8 -8 -7 -7 -7 -7 -6 -6 -6 -6 -7 -7 -6 -6 -7 -7 -7 -7 -7 -7 -7 -8 -8 -8 -8 -8 -9 -9 -9 -9
-9 -9 -9 -9 -9 -9 -9 -9 -9 -9 -8 -8 -8 -8 -8 -8 -8 -7 -7 -7 -7 -7 -7 -7 -6 -6 -6 -7 -7 -7 -7 -7 -7 -7 -8 -8 -9 -9 -9 -9 -9 -10 -9
-9 -9 -10 -10 -10 -9 -10 -9 -9 -9 -9 -9 -9 -9 -8 -8 -8 -8 -8 -8 -7 -7 -7 -7 -7 -6 -6 -7 -7 -8 -7 -7 -8 -8 -8 -8 -9 -9 -9 -9 -10 -10 -10
-9 -10 -10 -10 -10 -10 -10 -10 -10 -10 -10 -9 -9 -9 -8 -8 -8 -8 -9 -9 -8 -8 -7 -7 -7 -7 -7 -7 -7 -7 -8 -7 -8 -8 -8 -9 -9 -9 -9 -9 -10 -10 -10
-10 -10 -10 -10 -10 -10 -10 -10 -10 -10 -10 -10 -10 -10 -9 -9 -8 -8 -8 -9 -8 -9 -8 -8 -7 -7 -7 -7 -7 -7 -7 -8 -8 -8 -8 -9 -9 -10 -10 -10 -10 -10 -10
-10 -10 -11 -10 -10 -11 -11 -11 -10 -10 -10 -10 -11 -10 -10 -10 -9 -9 -9 -9 -8 -8 -9 -8 -8 -8 -8 -8 -7 -7 -7 -8 -8 -8 -9 -9 -9 -9 -10 -10 -10 -10 -10
-11 -11 -11 -11 -11 -11 -11 -11 -11 -10 -10 -10 -10 -10 -10 -10 -10 -10 -10 -9 -9 -9 -9 -9 -9 -8 -8 -8 -8 -8 -8 -8 -8 -8 -9 -9 -9 -9 -10 -10 -10 -10 -10
-12 -12 -12 -11 -11 -11 -11 -11 -11 -11 -11 -11 -11 -11 -11 -11 -10 -10 -10 -10 -10 -10 -10 -9 -9 -9 -9 -9 -8 -8 -8 -8 -8 -8 -9 -9 -9 -9 -9 -10 -10 -10 -10
-11 -11 -11 -11 -11 -11 -11 -11 -11 -11 -11 -11 -11 -11 -11 -11 -10 -11 -11 -11 -11 -10 -10 -10 -9 -9 -9 -9 -9 -9 -8 -8 -8 -9 -9 -9 -9 -9 -9 -10 -10 -10 -10
-11 -11 -11 -11 -11 -11 -11 -11 -11 -11 -11 -11 -11 -11 -11 -11 -11 -11 -10 -10 -10 -11 -11 -10 -10 -10 -9 -9 -9 -9 -9 -8 -8 -9 -9 -9 -9 -9 -9 -9 -10 -10 -10
-12 -12 -11 -11 -11 -11 -11 -11 -11 -11 -11 -11 -11 -11 -11 -11 -11 -11 -11 -11 -11 -10 -10 -11 -11 -10 -10 -10 -9 -9 -9 -9 -9 -9 -9 -9 -9 -9 -9 -9 -9 -10 -10
-11 -11 -11 -11 -11 -11 -11 -11 -11 -11 -11 -11 -11 -11 -11 -11 -11 -11 -11 -11 -11 -11 -11 -10 -10 -10 -11 -10 -10 -10 -9 -9 -9 -9 -9 -9 -9 -9 -9 -9 -9 -10 -10
-11 -11 -11 -11 -11 -11 -11 -11 -11 -11 -11 -10 -11 -11 -11 -10 -11 -11 -11 -11 -11 -11 -11 -11 -11 -11 -11 -11 -11 -10 -10 -9 -9 -9 -9 -9 -9 -9 -9 -9 -9 -9 -10
-11 -11 -11 -11 -11 -11 -11 -11 -11 -11 -11 -11 -10 -10 -10 -10 -11 -11 -11 -11 -11 -11 -11 -11 -11 -11 -11 -10 -11 -11 -10 -10 -9 -9 -10 -10 -9 -9 -9 -9 -9 -9 -10
-11 -11 -11 -11 -11 -11 -11 -11 -11 -11 -11 -11 -11 -11 -11 -11 -10 -10 -10 -10 -11 -11 -11 -11 -11 -11 -11 -11 -11 -10 -10 -11 -10 -10 -10 -10 -10 -10 -9 -9 -9 -9 -9
-12 -12 -12 -12 -12 -12 -12 -12 -12 -11 -11 -11 -11 -11 -11 -11 -11 -11 -11 -11 -10 -10 -11 -11 -11 -11 -11 -11 -11 -11 -11 -11 -10 -10 -10 -10 -10 -10 -10 -9 -9 -9 -9
-12 -12 -12 -12 -12 -12 -12 -12 -12 -12 -12 -12 -12 -12 -12 -12 -12 -11 -11 -11 -11 -11 -11 -10 -11 -11 -11 -11 -11 -11 -11 -11 -11 -10 -10 -10 -10 -10 -10 -10 -10 -9 -9
-12 -12 -12 -12 -12 -12 -12 -12 -12 -12 -12 -12 -12 -12 -12 -12 -12 -12 -11 -11 -11 -11 -11 -11 -10 -10 -11 -11 -11 -11 -11 -11 -11 -11 -10 -11 -10 -10 -10 -10 -10 -9 -9
-13 -13 -13 -13 -13 -13 -13 -12 -12 -12 -12 -12 -12 -12 -11 -11 -11 -11 -11 -11 -11 -11 -11 -11 -11 -11 -10 -11 -11 -11 -11 -11 -11 -11 -11 -11 -11 -11 -11 -10 -10 -10 -10
-13 -13 -13 -13 -13 -12 -12 -12 -12 -12 -12 -11 -11 -11 -11 -11 -11 -11 -11 -11 -11 -11 -11 -11 -11 -11 -11 -11 -11 -11 -11 -11 -11 -11 -11 -11 -11 -11 -11 -11 -10 -10 -10
-13 -13 -13 -13 -13 -12 -12 -12 -12 -11 -11 -11 -11 -11 -11 -11 -11 -11 -11 -11 -11 -11 -11 -10 -11 -11 -11 -11 -11 -11 -11 -11 -11 -11 -12 -12 -12 -11 -11 -11 -11 -10 -10
-13 -13 -13 -13 -13 -13 -12 -12 -12 -12 -12 -12 -12 -11 -11 -11 -11 -11 -11 -11 -11 -11 -11 -11 -11 -10 -11 -11 -11 -11 -11 -11 -12 -12 -11 -12 -12 -12 -12 -11 -11 -11 -10
-13 -13 -13 -13 -13 -13 -13 -13 -13 -13 -12 -12 -12 -12 -12 -12 -12 -12 -12 -12 -12 -13 -13 -13 -12 -11 -10 -11 -11 -11 -11 -11 -11 -12 -12 -12 -12 -12 -12 -12 -11 -11 -10
-14 -14 -14 -14 -14 -13 -13 -13 -13 -13 -13 -13 -13 -13 -13 -13 -13 -14 -14 -15 -16 -15 -16 -16 -16 -15 -13 -11 -12 -12 -11 -11 -11 -11 -12 -12 -12 -12 -12 -12 -12 -11 -11
-14 -14 -14 -14 -14 -14 -14 -14 -14 -14 -14 -14 -14 -14 -15 -16 -17 -18 -18 -19 -19 -19 -19 -19 -19 -18 -17 -15 -14 -13 -12 -11 -11 -11 -12 -12 -12 -12 -12 -12 -12 -12 -11
Height
5862 5863 5863 5864 5865 5867 5868 5870 5871 5872 5873 5874 5875 5876 5876 5876 5875 5876 5876 5877 5878 5879 5879 5880 5878 5878 5878 5878 5877 5878 5877 5877 5877 5876 5876 5875 5875 5875 5874 5874 5874 5876 5876
5859 5861 5862 5862 5863 5864 5865 5867 5869 5870 5870 5870 5871 5872 5874 5876 5875 5876 5876 5877 5878 5878 5879 5878 5877 5877 5878 5876 5878 5877 5875 5875 5875 5874 5874 5873 5873 5873 5873 5873 5874 5875 5875
5856 5858 5859 5860 5862 5863 5864 5864 5865 5867 5868 5869 5869 5870 5871 5872 5873 5875 5876 5876 5877 5878 5878 5878 5878 5877 5877 5876 5877 5875 5875 5875 5874 5873 5873 5873 5872 5872 5872 5873 5874 5873 5873
5853 5854 5856 5857 5859 5860 5861 5861 5862 5863 5864 5865 5867 5867 5868 5868 5868 5870 5872 5873 5874 5874 5875 5876 5876 5876 5876 5876 5875 5875 5874 5874 5873 5872 5872 5872 5871 5870 5870 5870 5872 5871 5872
5850 5852 5853 5854 5856 5857 5858 5858 5859 5860 5861 5862 5863 5864 5864 5865 5866 5867 5867 5868 5870 5870 5871 5872 5872 5872 5872 5872 5873 5873 5873 5872 5872 5872 5871 5872 5870 5868 5869 5869 5869 5870 5870
5847 5849 5851 5852 5853 5854 5855 5856 5856 5857 5858 5859 5860 5860 5861 5862 5863 5863 5865 5864 5865 5866 5867 5868 5869 5870 5870 5870 5870 5870 5870 5869 5870 5871 5871 5870 5868 5867 5867 5867 5868 5869 5868
5844 5846 5848 5849 5850 5851 5851 5852 5853 5854 5855 5855 5856 5857 5858 5859 5860 5860 5861 5861 5862 5862 5863 5863 5864 5865 5866 5866 5866 5867 5867 5867 5867 5868 5867 5868 5867 5866 5865 5866 5866 5867 5866
5841 5843 5844 5845 5846 5847 5848 5848 5849 5850 5850 5851 5852 5852 5853 5854 5855 5856 5857 5858 5858 5859 5860 5860 5860 5860 5861 5863 5863 5863 5863 5863 5863 5864 5864 5864 5865 5863 5864 5865 5865 5864 5863
5838 5839 5840 5841 5842 5842 5843 5844 5844 5845 5846 5847 5847 5848 5849 5850 5850 5851 5852 5853 5854 5854 5855 5856 5857 5856 5857 5857 5858 5859 5859 5859 5859 5859 5861 5860 5860 5861 5861 5862 5860 5860 5861
5834 5835 5836 5836 5837 5838 5839 5839 5840 5841 5842 5842 5843 5843 5844 5845 5846 5846 5846 5848 5848 5849 5849 5850 5851 5851 5851 5852 5853 5854 5854 5854 5855 5855 5856 5856 5856 5857 5858 5857 5857 5857 5857
5830 5830 5831 5831 5832 5833 5833 5834 5835 5835 5836 5836 5838 5838 5839 5840 5841 5840 5841 5842 5842 5843 5843 5844 5844 5845 5846 5846 5847 5848 5849 5849 5850 5851 5852 5853 5852 5853 5854 5853 5853 5853 5853
5825 5825 5826 5826 5826 5827 5828 5828 5829 5830 5830 5830 5831 5832 5832 5833 5834 5834 5834 5835 5835 5836 5836 5837 5838 5839 5840 5840 5841 5842 5843 5844 5845 5846 5847 5847 5848 5849 5849 5849 5849 5849 5849
5820 5820 5820 5821 5821 5821 5821 5822 5822 5822 5823 5823 5824 5825 5825 5826 5826 5827 5827 5827 5828 5829 5830 5830 5832 5832 5834 5835 5835 5836 5836 5838 5839 5840 5842 5842 5842 5843 5842 5844 5844 5844 5844
5812 5812 5813 5813 5813 5813 5814 5814 5814 5815 5815 5816 5816 5816 5817 5818 5818 5819 5819 5820 5821 5821 5822 5823 5823 5824 5825 5826 5829 5829 5830 5832 5832 5834 5836 5836 5835 5837 5837 5838 5839 5838 5839
5805 5805 5805 5805 5804 5804 5805 5805 5805 5806 5806 5807 5807 5807 5808 5808 5808 5809 5810 5811 5812 5813 5814 5815 5816 5816 5817 5818 5820 5822 5823 5825 5826 5827 5828 5828 5829 5830 5831 5832 5833 5834 5834
5797 5797 5796 5796 5796 5796 5795 5795 5795 5795 5795 5796 5797 5797 5797 5797 5797 5798 5798 5800 5801 5803 5804 5806 5806 5807 5807 5809 5811 5813 5815 5818 5818 5819 5821 5821 5822 5823 5825 5826 5827 5828 5828
5789 5789 5788 5787 5787 5786 5786 5785 5785 5785 5785 5785 5785 5785 5785 5786 5786 5786 5786 5787 5789 5790 5791 5794 5795 5796 5796 5798 5800 5802 5804 5806 5808 5811 5812 5813 5814 5817 5818 5819 5821 5822 5822
5781 5781 5780 5779 5779 5778 5777 5776 5775 5774 5773 5773 5773 5772 5772 5773 5773 5773 5773 5774 5775 5776 5777 5779 5781 5785 5787 5786 5789 5791 5793 5795 5797 5801 5803 5805 5807 5808 5811 5812 5814 5815 5816
5772 5771 5770 5769 5767 5766 5764 5763 5762 5762 5761 5760 5759 5758 5758 5758 5758 5758 5759 5759 5760 5759 5761 5764 5765 5770 5774 5775 5776 5779 5781 5784 5787 5789 5793 5795 5797 5800 5802 5804 5806 5808 5808
5761 5759 5758 5756 5755 5753 5751 5749 5747 5745 5744 5742 5741 5741 5740 5740 5740 5740 5740 5741 5742 5742 5742 5746 5750 5752 5757 5759 5762 5765 5768 5772 5775 5778 5781 5784 5787 5790 5792 5795 5798 5800 5802
5750 5748 5746 5744 5742 5740 5738 5735 5732 5729 5726 5724 5722 5721 5720 5719 5719 5719 5719 5718 5719 5721 5722 5725 5729 5734 5739 5738 5745 5748 5753 5758 5762 5766 5770 5773 5776 5778 5783 5786 5789 5792 5794
5737 5735 5732 5729 5726 5723 5720 5717 5714 5710 5708 5705 5701 5699 5697 5696 5695 5695 5695 5694 5694 5694 5695 5700 5705 5712 5718 5719 5724 5731 5738 5742 5749 5753 5757 5760 5763 5766 5771 5775 5778 5782 5785
5722 5719 5715 5712 5708 5704 5701 5697 5693 5690 5687 5684 5680 5676 5672 5670 5668 5667 5666 5665 5665 5666 5666 5667 5674 5684 5693 5696 5702 5709 5717 5725 5731 5737 5742 5746 5750 5754 5758 5764 5768 5772 5776
5707 5703 5699 5694 5690 5685 5681 5677 5673 5669 5665 5661 5656 5651 5645 5642 5638 5636 5633 5630 5629 5630 5631 5634 5639 5648 5660 5669 5676 5684 5695 5705 5714 5722 5726 5731 5735 5741 5746 5752 5757 5760 5765
5689 5685 5681 5676 5671 5666 5662 5658 5653 5648 5643 5638 5633 5627 5620 5612 5606 5601 5597 5594 5591 5592 5594 5598 5604 5610 5621 5635 5644 5656 5669 5681 5694 5704 5710 5716 5721 5727 5733 5740 5745 5749 5754
5672 5668 5662 5657 5652 5647 5642 5637 5632 5626 5619 5613 5607 5600 5591 5582 5574 5567 5563 5560 5557 5557 5557 5561 5569 5577 5584 5598 5609 5627 5640 5655 5670 5680 5690 5699 5705 5712 5718 5725 5732 5738 5742
Wind_Speed
11 10 12 13 14 14 11 13 15 14 13 13 13 14 14 12 11 10 10 7 6 6 7 6 5 5 6 7 7 8 6 5 5 5 7 6 8 8 7 7 8 9 8
12 12 12 13 15 14 14 12 11 13 15 16 14 14 14 16 15 14 12 10 8 9 9 9 8 7 8 6 7 9 9 7 6 7 7 6 8 9 9 11 11 11 11
11 12 12 13 14 14 14 13 12 12 14 15 15 16 15 13 15 16 16 14 12 12 11 12 11 11 11 9 9 9 11 9 8 8 8 7 6 7 8 10 10 11 11
13 14 14 14 15 16 15 16 13 12 13 16 17 16 17 17 16 16 16 17 16 15 14 14 14 14 13 12 11 10 12 12 10 8 9 8 8 7 8 9 10 10 11
14 13 15 15 16 16 18 18 16 16 15 15 17 20 20 20 19 17 17 17 17 18 17 17 17 17 15 14 14 12 13 13 11 11 10 10 11 7 10 10 12 12 13
13 14 15 14 15 16 19 21 20 19 19 18 19 19 20 22 23 23 21 20 19 19 19 19 19 20 19 18 16 15 15 13 12 11 12 13 14 11 11 12 13 14 14
17 16 15 14 13 14 16 17 21 21 22 22 21 21 22 23 24 25 24 23 22 22 21 21 21 22 22 21 20 18 17 16 15 14 13 13 16 13 14 14 15 15 15
15 16 16 17 18 19 19 19 19 20 22 23 25 26 25 24 24 24 24 25 25 24 24 24 23 23 24 25 24 21 19 19 18 17 16 15 16 16 16 17 18 18 17
15 15 16 17 17 17 19 21 21 22 23 23 24 26 29 29 28 26 25 26 26 25 26 26 26 26 27 27 26 24 22 21 22 19 18 16 18 18 18 18 18 19 18
16 17 17 18 18 19 19 21 21 21 22 23 26 27 26 27 29 31 30 29 28 27 28 28 29 29 30 30 29 28 26 25 24 23 21 19 20 19 19 21 20 19 20
17 18 19 19 19 20 20 21 22 22 23 24 25 26 28 31 32 32 31 31 31 30 31 30 30 32 33 33 32 31 30 29 27 26 23 23 23 22 21 22 21 21 21
20 22 22 23 24 25 25 26 26 27 27 27 27 27 29 30 31 32 35 36 33 34 34 34 33 33 36 36 35 34 33 32 30 31 27 28 26 24 24 22 21 23 22
23 24 25 26 27 28 29 30 31 32 32 32 33 33 33 33 33 33 36 37 37 39 38 39 39 39 36 38 37 38 36 35 34 33 31 30 28 27 27 24 22 24 23
26 28 29 30 31 32 33 35 36 36 36 37 37 38 38 39 39 39 38 39 40 41 40 42 42 41 43 36 40 39 40 39 37 36 33 34 33 31 30 28 24 25 24
29 31 32 34 35 36 37 37 38 39 40 41 42 43 43 44 44 45 44 44 44 43 43 45 44 47 46 48 44 39 41 41 40 39 35 35 34 34 31 29 27 26 26
31 33 34 36 37 38 39 40 41 42 43 44 44 45 46 47 48 49 50 50 50 49 48 47 48 49 49 49 51 49 47 46 45 43 40 37 35 33 31 30 28 26 29
34 35 37 38 40 41 42 43 44 45 46 47 48 49 50 51 52 53 54 55 55 55 55 53 53 52 53 52 50 48 47 49 49 49 44 44 42 37 37 34 30 28 30
37 38 39 40 40 40 41 43 45 46 47 47 47 49 51 53 54 56 58 59 60 60 61 61 59 57 56 57 55 51 46 46 50 50 48 46 45 41 38 36 33 31 30
38 39 40 42 44 46 48 50 52 53 55 56 56 56 56 57 59 61 63 63 64 66 67 66 66 64 62 62 60 57 55 49 52 54 52 48 47 44 42 39 35 32 32
41 41 42 43 45 46 48 50 53 56 59 62 65 68 70 70 68 68 67 69 69 69 70 72 71 70 68 68 67 63 61 57 53 55 52 48 48 46 45 43 39 34 33
43 44 46 48 49 50 51 54 57 59 62 64 66 68 70 72 74 74 75 78 79 79 77 73 72 73 73 75 72 70 66 60 57 58 56 51 49 50 47 45 42 38 35
46 47 49 51 53 54 56 59 61 64 66 68 71 74 75 77 79 80 83 85 84 85 87 86 82 80 78 78 79 75 72 68 60 60 62 60 55 53 50 48 45 41 39
50 52 52 54 57 59 62 65 67 70 70 73 76 79 82 85 87 90 91 92 93 93 93 92 91 87 84 83 82 81 78 75 67 63 62 62 62 57 53 51 47 43 42
54 55 56 59 60 63 65 68 71 73 75 77 81 85 90 93 97 98 100 101 102 99 94 93 94 94 91 89 87 87 83 80 75 67 66 63 61 59 56 53 50 47 44
57 58 60 63 65 67 69 73 75 77 80 83 86 91 96 100 103 104 104 102 100 98 95 92 92 95 95 93 95 92 88 85 79 75 69 68 64 59 57 54 52 49 47
61 62 63 67 68 70 73 76 79 82 85 89 93 97 98 99 99 99 97 92 89 87 88 89 89 91 95 98 101 97 95 90 85 81 76 70 68 63 58 56 53 52 48
Wind_Direction
230 218 223 219 217 222 219 224 225 223 234 242 255 263 263 254 258 248 243 242 242 245 253 265 279 296 308 318 319 320 319 299 295 283 274 272 264 273 283 275 266 259 253
240 240 236 233 231 228 218 215 234 236 235 235 240 251 259 265 266 269 266 261 253 251 248 255 267 267 279 293 296 300 304 299 297 300 288 278 261 269 283 284 282 272 266
239 243 245 243 243 240 234 223 226 239 243 248 242 243 248 250 258 267 271 270 266 261 259 261 266 268 274 282 281 290 288 285 293 301 295 288 272 262 272 278 270 274 277
233 235 239 246 244 242 238 240 236 241 242 243 243 243 244 246 240 248 259 266 267 266 263 260 257 260 264 273 279 286 282 277 282 285 285 287 277 264 281 285 272 258 257
245 242 239 243 246 243 244 237 237 237 245 250 253 253 248 249 250 244 246 253 257 261 263 263 264 260 260 258 265 272 275 276 277 279 284 274 277 269 275 277 276 267 261
249 243 245 245 249 251 250 250 249 249 248 248 252 255 256 254 252 251 250 250 253 257 257 262 262 263 263 261 257 258 261 263 266 268 270 276 275 276 272 275 270 267 264
240 242 247 246 246 251 248 252 254 257 255 256 257 258 259 258 257 256 256 254 253 257 259 258 260 263 263 260 259 258 251 249 252 255 262 266 273 273 273 270 269 269 261
245 246 248 247 251 251 256 256 259 260 260 258 259 259 260 260 262 262 261 261 260 259 256 256 256 258 263 260 257 255 253 247 246 250 254 262 265 273 272 263 261 262 263
250 251 252 253 255 255 255 256 259 260 260 264 262 261 261 263 261 261 261 262 262 263 263 259 257 256 257 260 261 257 253 248 249 250 252 253 259 271 276 271 265 265 263
261 263 265 266 264 265 265 267 266 267 267 267 265 268 267 268 270 270 267 264 265 263 263 263 260 258 256 257 260 259 255 252 249 251 252 254 261 269 277 278 270 267 260
265 268 271 273 273 273 272 272 274 272 272 271 270 271 271 271 271 270 270 269 267 267 263 262 264 261 259 256 255 256 255 253 252 250 251 255 260 265 269 273 269 267 261
271 273 274 276 276 276 275 275 274 274 274 274 274 273 273 273 275 275 270 269 269 266 264 264 263 267 260 258 256 255 256 256 253 253 250 253 255 264 265 268 269 267 265
273 274 275 276 278 279 279 279 278 277 276 275 274 273 273 273 273 273 273 274 270 266 266 265 264 264 269 261 257 258 254 254 255 254 254 254 256 255 262 261 264 267 266
284 283 282 283 282 283 283 284 284 282 280 279 278 277 276 275 274 272 271 272 272 271 270 264 267 265 260 270 256 257 258 255 254 255 256 254 252 258 256 259 258 261 265
282 283 283 283 284 284 284 283 283 282 282 282 281 280 279 278 277 275 273 271 269 270 270 271 268 265 264 259 264 262 259 259 257 254 253 254 253 255 255 256 258 257 263
282 283 283 284 284 285 285 285 285 285 284 284 282 281 281 281 279 278 276 274 272 269 266 266 267 268 268 265 265 264 264 264 259 255 251 250 250 251 255 255 256 256 261
281 281 282 283 284 284 284 284 283 282 282 282 281 280 279 278 276 276 276 276 274 272 269 265 264 265 266 265 264 264 263 257 257 254 251 249 250 251 255 258 256 256 256
277 277 277 278 279 280 280 281 282 282 281 280 279 280 281 280 280 278 277 276 274 272 271 269 265 261 262 264 263 262 260 255 250 251 251 252 251 252 250 254 254 255 259
278 277 277 278 279 279 280 280 280 280 279 277 277 278 279 280 280 278 275 274 274 274 272 269 268 264 260 259 260 259 257 257 251 248 248 251 253 252 251 251 252 253 257
279 280 281 282 283 283 284 283 282 281 279 278 276 274 271 273 276 279 276 272 270 273 273 269 267 265 262 258 257 257 257 253 253 244 245 246 250 252 251 249 249 250 252
280 280 281 281 281 282 282 283 283 283 283 281 280 279 277 277 279 281 280 280 278 274 271 268 265 262 260 259 256 253 254 253 251 245 243 246 249 251 251 250 247 247 249
283 284 283 283 285 286 287 287 288 288 288 288 288 286 285 285 284 284 284 282 279 276 274 271 267 261 258 255 256 253 250 251 248 247 245 246 247 250 249 248 247 244 245
288 288 290 291 291 291 291 291 290 291 292 292 292 290 289 288 287 287 286 284 281 278 274 270 265 261 256 252 251 251 249 247 245 245 246 245 244 248 249 248 247 244 241
290 291 293 296 296 295 296 296 295 295 296 296 296 296 295 293 291 289 288 285 281 276 270 264 260 256 250 248 245 248 247 245 243 242 242 243 243 244 247 246 246 243 239
294 294 297 299 299 298 298 298 298 298 298 299 298 298 298 296 293 291 288 284 280 275 269 262 256 251 245 239 239 239 243 243 241 240 239 241 241 241 243 242 242 241 238
295 295 297 300 300 299 299 299 300 300 301 302 302 302 300 297 294 291 288 284 279 273 268 262 255 249 246 236 232 233 235 237 239 237 236 236 239 238 239 241 239 240 237